Total_Precipitation_Accumulation
0.04 0.03 0.04 0.06 0.09 0.11 0.10 0.16 0.18 0.20 0.24 0.23 0.21 0.19 0.18 0.11 0.06 0.06 0.04 0.03 0.01 0.02 0.05 0.03 0.01 0.00 0.00 0.00 0.00 0.00 0.00 0.00 0.00 0.01 0.01 0.01 0.01 0.01 0.02 0.01 0.01 0.03 0.02 0.11 0.29 0.17 0.16
0.02 0.03 0.04 0.05 0.06 0.08 0.10 0.16 0.18 0.20 0.28 0.28 0.22 0.16 0.18 0.19 0.16 0.09 0.05 0.04 0.01 0.02 0.04 0.03 0.00 0.00 0.00 0.00 0.00 0.00 0.00 0.00 0.00 0.04 0.02 0.04 0.02 0.03 0.06 0.02 0.03 0.00 0.01 0.06 0.34 0.45 0.23
0.01 0.01 0.02 0.03 0.04 0.05 0.07 0.11 0.16 0.26 0.30 0.22 0.19 0.24 0.30 0.26 0.16 0.08 0.07 0.05 0.01 0.01 0.01 0.05 0.03 0.00 0.00 0.00 0.00 0.00 0.00 0.00 0.00 0.03 0.03 0.05 0.10 0.12 0.10 0.05 0.02 0.02 0.05 0.04 0.29 0.54 0.62
0.03 0.02 0.02 0.03 0.03 0.04 0.06 0.08 0.14 0.21 0.26 0.27 0.28 0.26 0.24 0.25 0.16 0.10 0.08 0.05 0.04 0.00 0.01 0.03 0.02 0.00 0.00 0.00 0.00 0.00 0.00 0.00 0.00 0.00 0.01 0.05 0.14 0.29 0.29 0.12 0.18 0.09 0.11 0.11 0.12 0.56 0.84
0.02 0.03 0.04 0.03 0.03 0.03 0.05 0.06 0.09 0.16 0.24 0.24 0.19 0.16 0.23 0.27 0.21 0.19 0.12 0.07 0.02 0.02 0.02 0.02 0.00 0.00 0.00 0.00 0.00 0.00 0.00 0.00 0.01 0.02 0.02 0.08 0.17 0.47 0.53 0.26 0.22 0.19 0.10 0.08 0.14 0.35 0.90
0.04 0.04 0.04 0.04 0.04 0.04 0.06 0.09 0.13 0.21 0.30 0.27 0.25 0.28 0.32 0.27 0.22 0.16 0.10 0.08 0.02 0.01 0.00 0.00 0.00 0.00 0.00 0.00 0.00 0.00 0.00 0.00 0.01 0.02 0.04 0.25 0.63 0.40 0.37 0.30 0.19 0.13 0.06 0.07 0.29 0.37 0.69
0.05 0.05 0.04 0.03 0.02 0.02 0.05 0.10 0.17 0.26 0.33 0.32 0.30 0.34 0.47 0.30 0.17 0.15 0.13 0.09 0.01 0.00 0.00 0.00 0.00 0.00 0.00 0.00 0.00 0.00 0.00 0.00 0.00 0.03 0.07 0.24 0.54 0.27 0.21 0.14 0.09 0.19 0.04 0.05 0.17 0.33 0.38
0.05 0.05 0.04 0.03 0.02 0.02 0.05 0.09 0.13 0.26 0.38 0.32 0.28 0.28 0.31 0.27 0.17 0.13 0.10 0.05 0.00 0.00 0.00 0.00 0.00 0.00 0.00 0.00 0.00 0.00 0.00 0.00 0.02 0.04 0.05 0.09 0.16 0.05 0.17 0.21 0.06 0.25 0.09 0.14 0.23 0.28 0.23
0.06 0.06 0.05 0.04 0.04 0.04 0.06 0.10 0.13 0.23 0.31 0.30 0.31 0.37 0.40 0.32 0.20 0.20 0.13 0.03 0.00 0.00 0.00 0.00 0.00 0.00 0.00 0.00 0.00 0.00 0.02 0.05 0.09 0.08 0.05 0.12 0.20 0.17 0.36 0.22 0.11 0.15 0.06 0.10 0.14 0.35 0.15
0.09 0.08 0.08 0.08 0.07 0.09 0.07 0.15 0.17 0.23 0.29 0.32 0.34 0.41 0.45 0.27 0.24 0.21 0.17 0.01 0.00 0.00 0.00 0.00 0.00 0.00 0.00 0.00 0.00 0.00 0.03 0.22 0.26 0.17 0.19 0.30 0.20 0.21 0.54 0.13 0.06 0.01 0.09 0.20 0.08 0.21 0.15
0.11 0.10 0.12 0.14 0.13 0.08 0.10 0.17 0.19 0.32 0.36 0.32 0.33 0.42 0.42 0.16 0.15 0.17 0.07 0.00 0.00 0.00 0.00 0.00 0.00 0.00 0.00 0.00 0.01 0.01 0.05 0.18 0.41 0.40 0.39 0.28 0.24 0.52 0.40 0.03 0.03 0.03 0.07 0.23 0.19 0.12 0.10
0.13 0.19 0.30 0.23 0.12 0.14 0.13 0.23 0.27 0.32 0.35 0.37 0.38 0.37 0.46 0.21 0.19 0.11 0.01 0.00 0.00 0.00 0.00 0.00 0.00 0.00 0.00 0.00 0.00 0.03 0.06 0.15 0.34 0.61 0.50 0.47 0.59 0.46 0.11 0.07 0.04 0.06 0.13 0.17 0.09 0.04 0.08
0.27 0.31 0.23 0.21 0.23 0.25 0.21 0.23 0.30 0.36 0.39 0.45 0.42 0.41 0.32 0.18 0.13 0.08 0.00 0.00 0.00 0.00 0.00 0.00 0.00 0.00 0.00 0.00 0.00 0.00 0.01 0.02 0.05 0.14 0.24 0.27 0.22 0.10 0.12 0.13 0.14 0.11 0.07 0.10 0.06 0.09 0.03
0.35 0.27 0.28 0.27 0.26 0.25 0.26 0.29 0.30 0.41 0.47 0.43 0.43 0.60 0.30 0.16 0.08 0.03 0.00 0.00 0.00 0.00 0.00 0.00 0.00 0.00 0.00 0.00 0.00 0.00 0.00 0.00 0.00 0.00 0.03 0.14 0.21 0.12 0.12 0.05 0.05 0.05 0.01 0.01 0.03 0.04 0.00
0.29 0.27 0.28 0.25 0.26 0.31 0.34 0.42 0.49 0.48 0.45 0.44 0.61 0.48 0.21 0.16 0.06 0.01 0.00 0.00 0.00 0.00 0.00 0.00 0.00 0.00 0.00 0.00 0.00 0.00 0.00 0.00 0.00 0.00 0.00 0.01 0.14 0.07 0.04 0.02 0.07 0.05 0.00 0.00 0.00 0.00 0.00
0.23 0.29 0.31 0.23 0.28 0.31 0.37 0.69 0.74 0.55 0.37 0.43 0.62 0.34 0.24 0.11 0.04 0.00 0.00 0.00 0.00 0.00 0.00 0.00 0.00 0.00 0.00 0.00 0.00 0.00 0.00 0.00 0.00 0.00 0.00 0.00 0.09 0.07 0.06 0.07 0.06 0.00 0.00 0.00 0.00 0.00 0.00
0.17 0.18 0.19 0.28 0.32 0.33 0.40 0.80 0.62 0.59 0.43 0.50 0.39 0.39 0.28 0.08 0.01 0.00 0.00 0.00 0.00 0.00 0.00 0.00 0.00 0.00 0.00 0.00 0.00 0.00 0.00 0.00 0.00 0.00 0.00 0.00 0.01 0.02 0.01 0.01 0.01 0.00 0.00 0.00 0.00 0.00 0.00
0.11 0.16 0.12 0.25 0.43 0.43 0.46 0.54 0.54 0.55 0.63 0.46 0.25 0.27 0.21 0.04 0.01 0.00 0.00 0.00 0.00 0.00 0.00 0.00 0.00 0.00 0.00 0.00 0.00 0.00 0.00 0.00 0.00 0.00 0.00 0.00 0.00 0.00 0.00 0.00 0.00 0.00 0.00 0.00 0.00 0.00 0.00
0.08 0.21 0.24 0.26 0.29 0.37 0.53 0.52 0.31 0.30 0.29 0.17 0.25 0.29 0.21 0.02 0.00 0.00 0.00 0.00 0.00 0.00 0.00 0.00 0.00 0.00 0.00 0.00 0.00 0.00 0.00 0.00 0.00 0.00 0.00 0.00 0.00 0.00 0.00 0.00 0.00 0.00 0.00 0.00 0.00 0.00 0.00
0.13 0.21 0.30 0.32 0.34 0.32 0.27 0.34 0.25 0.26 0.23 0.13 0.17 0.21 0.18 0.05 0.01 0.00 0.00 0.00 0.00 0.00 0.00 0.00 0.00 0.00 0.00 0.00 0.00 0.00 0.00 0.00 0.00 0.00 0.00 0.00 0.00 0.00 0.00 0.00 0.00 0.00 0.00 0.00 0.00 0.00 0.00
0.08 0.20 0.45 0.48 0.25 0.42 0.35 0.31 0.34 0.36 0.21 0.11 0.09 0.02 0.01 0.02 0.00 0.00 0.00 0.00 0.00 0.00 0.00 0.00 0.00 0.00 0.00 0.00 0.00 0.00 0.00 0.00 0.00 0.00 0.00 0.00 0.00 0.00 0.00 0.00 0.00 0.00 0.00 0.00 0.00 0.00 0.00
0.05 0.31 0.62 0.66 0.92 0.56 0.54 0.51 0.55 0.38 0.20 0.10 0.02 0.00 0.00 0.00 0.00 0.00 0.00 0.00 0.00 0.00 0.00 0.00 0.00 0.00 0.00 0.00 0.00 0.00 0.00 0.00 0.00 0.00 0.00 0.00 0.00 0.00 0.00 0.00 0.00 0.00 0.00 0.00 0.00 0.00 0.00
0.05 0.33 0.48 0.67 1.30 1.23 1.24 0.93 0.61 0.31 0.13 0.06 0.00 0.00 0.00 0.00 0.00 0.00 0.00 0.00 0.00 0.00 0.00 0.00 0.00 0.00 0.00 0.00 0.00 0.00 0.00 0.00 0.00 0.00 0.00 0.00 0.00 0.00 0.00 0.00 0.00 0.00 0.00 0.00 0.00 0.00 0.00
0.02 0.16 0.47 0.47 0.66 0.50 0.90 0.74 0.51 0.22 0.03 0.01 0.00 0.00 0.00 0.00 0.00 0.00 0.00 0.00 0.00 0.00 0.00 0.00 0.00 0.00 0.00 0.00 0.00 0.00 0.00 0.00 0.00 0.00 0.00 0.00 0.00 0.00 0.00 0.00 0.00 0.00 0.00 0.00 0.00 0.00 0.00
0.01 0.10 0.29 0.62 0.71 0.27 0.21 0.34 0.36 0.10 0.00 0.00 0.00 0.00 0.00 0.00 0.00 0.00 0.00 0.00 0.00 0.00 0.00 0.00 0.00 0.00 0.00 0.00 0.00 0.00 0.00 0.00 0.00 0.00 0.00 0.00 0.00 0.00 0.00 0.00 0.00 0.00 0.00 0.00 0.00 0.00 0.00
0.01 0.05 0.20 0.24 0.65 0.46 0.17 0.20 0.22 0.06 0.00 0.00 0.00 0.00 0.00 0.00 0.00 0.00 0.00 0.00 0.00 0.00 0.00 0.00 0.00 0.00 0.00 0.00 0.00 0.00 0.00 0.00 0.00 0.00 0.00 0.00 0.00 0.00 0.00 0.00 0.00 0.00 0.00 0.00 0.00 0.00 0.00
0.00 0.00 0.06 0.08 0.26 0.34 0.24 0.20 0.13 0.04 0.01 0.00 0.00 0.00 0.00 0.00 0.00 0.00 0.00 0.00 0.00 0.00 0.00 0.00 0.00 0.00 0.00 0.00 0.00 0.00 0.00 0.00 0.00 0.00 0.00 0.00 0.00 0.00 0.00 0.00 0.00 0.00 0.00 0.00 0.00 0.00 0.00
0.00 0.00 0.01 0.07 0.26 0.40 0.23 0.14 0.03 0.01 0.01 0.00 0.00 0.00 0.00 0.00 0.00 0.00 0.00 0.00 0.00 0.00 0.00 0.00 0.00 0.00 0.00 0.00 0.00 0.00 0.00 0.00 0.00 0.00 0.00 0.00 0.00 0.00 0.00 0.00 0.00 0.00 0.00 0.00 0.00 0.00 0.00
0.01 0.00 0.00 0.02 0.16 0.25 0.19 0.07 0.01 0.00 0.00 0.00 0.00 0.00 0.00 0.00 0.00 0.00 0.00 0.00 0.00 0.00 0.00 0.00 0.00 0.00 0.00 0.00 0.00 0.00 0.00 0.00 0.00 0.00 0.00 0.00 0.00 0.00 0.00 0.00 0.00 0.00 0.00 0.00 0.00 0.00 0.00